Weather History for KMJQ - May, 2013

Change the Weather History Date:

Sunday, May 5, 2013

  Actual Average Record
Temperature  
Mean Temperature 45 °F -  
Max Temperature 51 °F 63 °F 87 °F (2000)
Min Temperature 39 °F 42 °F 28 °F (2002)
Degree Days  
Heating Degree Days 20    
Moisture  
Dew Point 41 °F    
Average Humidity 88    
Maximum Humidity 93    
Minimum Humidity 76    
Precipitation  
Precipitation 0.00 in - - ()
Sea Level Pressure  
Sea Level Pressure 30.14 in    
Wind  
Wind Speed 7 mph (NNW)    
Max Wind Speed 13 mph    
Max Gust Speed 18 mph    
Visibility 6 miles    
Events Fog    
Averages and records for this station are not official NWS values.
T = Trace of Precipitation, MM = Missing Value Source: NWS Daily Summary

Daily Weather History Graph

Daily Weather History Graph

Search for Another Location

Airport or City:

Trip Planner

Search our weather history database for the weather conditions in past years. The results will help you decide how hot, cold, wet, or windy it might be!

Date:

Astronomy

May. 05, 2013 Rise Set
Actual Time 6:06 AM CDT 8:27 PM CDT
Civil Twilight 5:34 AM CDT 8:59 PM CDT
Nautical Twilight 4:55 AM CDT 9:39 PM CDT
Astronomical Twilight 4:10 AM CDT 10:23 PM CDT
Moon 3:45 AM CDT 4:20 PM CDT
Length of Visible Light 15h 24m
Length of Day
14h 20m
Waning Crescent, 18% of the Moon is Illuminated
May 5
Waning Crescent
May 9
New
May 17
First Quarter
May 24
Full
May 31
Last Quarter

Hourly Weather History & Observations

Time (CDT) Temp. Windchill Dew Point Humidity Pressure Visibility Wind Dir Wind Speed Gust Speed Precip Events Conditions
12:12 AM 39.2 °F 33.6 °F 37.4 °F 93% 30.16 in 0.5 mi North 8.1 mph - N/A   Unknown
12:32 AM 39.2 °F 35.0 °F 37.4 °F 93% 30.16 in 0.5 mi North 5.8 mph - N/A   Unknown
12:53 AM 39.2 °F 35.0 °F 37.4 °F 93% 30.15 in 0.8 mi North 5.8 mph - N/A   Overcast
1:12 AM 39.2 °F 34.2 °F 37.4 °F 93% 30.15 in 0.8 mi North 6.9 mph - N/A   Overcast
1:32 AM 39.2 °F 33.6 °F 37.4 °F 93% 30.15 in 1.5 mi North 8.1 mph - N/A   Overcast
1:53 AM 39.2 °F 33.0 °F 37.4 °F 93% 30.15 in 1.2 mi North 9.2 mph - N/A   Overcast
2:12 AM 39.2 °F 35.0 °F 37.4 °F 93% 30.15 in 1.0 mi North 5.8 mph - N/A   Overcast
2:32 AM 39.2 °F 34.2 °F 37.4 °F 93% 30.14 in 0.8 mi North 6.9 mph - N/A   Overcast
2:53 AM 39.2 °F 35.0 °F 37.4 °F 93% 30.13 in 0.8 mi North 5.8 mph - N/A   Overcast
3:12 AM 39.2 °F 33.6 °F 37.4 °F 93% 30.13 in 0.8 mi North 8.1 mph - N/A   Overcast
3:32 AM 39.2 °F 34.2 °F 37.4 °F 93% 30.13 in 0.8 mi North 6.9 mph - N/A   Overcast
3:53 AM 39.2 °F 34.2 °F 37.4 °F 93% 30.13 in 0.8 mi North 6.9 mph - N/A   Overcast
4:13 AM 39.2 °F 35.0 °F 37.4 °F 93% 30.13 in 0.8 mi North 5.8 mph - N/A   Overcast
4:32 AM 39.2 °F 37.0 °F 37.4 °F 93% 30.14 in 0.8 mi North 3.5 mph - N/A   Overcast
4:52 AM 39.2 °F 35.9 °F 37.4 °F 93% 30.14 in 0.8 mi North 4.6 mph - N/A   Overcast
5:13 AM 39.2 °F 35.0 °F 37.4 °F 93% 30.14 in 0.8 mi North 5.8 mph - N/A   Overcast
5:32 AM 39.2 °F 33.6 °F 37.4 °F 93% 30.14 in 1.0 mi NNW 8.1 mph - N/A   Overcast
5:52 AM 39.2 °F 33.6 °F 37.4 °F 93% 30.15 in 1.0 mi NNW 8.1 mph - N/A   Overcast
6:12 AM 39.2 °F 35.9 °F 37.4 °F 93% 30.15 in 1.0 mi North 4.6 mph - N/A   Overcast
6:32 AM 39.2 °F 32.0 °F 37.4 °F 93% 30.15 in 0.5 mi NNW 11.5 mph - N/A Fog Fog
6:53 AM 39.2 °F 33.0 °F 37.4 °F 93% 30.15 in 0.8 mi NNW 9.2 mph - N/A   Overcast
7:12 AM 39.2 °F 31.6 °F 37.4 °F 93% 30.15 in 1.0 mi NNW 12.7 mph - N/A   Overcast
7:32 AM 39.2 °F 34.2 °F 37.4 °F 93% 30.16 in 4.0 mi North 6.9 mph 17.3 mph N/A   Overcast
7:53 AM 41.0 °F 34.7 °F 37.4 °F 87% 30.16 in 4.0 mi North 10.4 mph - N/A   Overcast
8:12 AM 41.0 °F 34.7 °F 37.4 °F 87% 30.16 in 5.0 mi North 10.4 mph - N/A   Overcast
8:33 AM 41.0 °F 35.8 °F 37.4 °F 87% 30.16 in 5.0 mi North 8.1 mph - N/A   Overcast
8:52 AM 41.0 °F 35.2 °F 37.4 °F 87% - 5.0 mi NNW 9.2 mph - N/A   Overcast
9:12 AM 41.0 °F 35.8 °F 39.2 °F 93% 30.16 in 5.0 mi North 8.1 mph - N/A   Overcast
9:33 AM 42.8 °F 38.0 °F 39.2 °F 87% 30.16 in 4.0 mi NNW 8.1 mph - N/A   Overcast
9:52 AM 42.8 °F 36.2 °F 41.0 °F 93% 30.15 in 3.0 mi NNW 12.7 mph 18.4 mph N/A   Overcast
10:12 AM 42.8 °F 36.6 °F 41.0 °F 93% 30.16 in 5.0 mi North 11.5 mph 16.1 mph N/A   Overcast
10:33 AM 42.8 °F 38.0 °F 41.0 °F 93% 30.15 in 3.0 mi North 8.1 mph - N/A   Overcast
10:57 AM 44.6 °F 40.2 °F 42.8 °F 93% 30.16 in 4.0 mi North 8.1 mph - N/A   Overcast
11:12 AM 44.6 °F 40.2 °F 42.8 °F 93% 30.16 in 5.0 mi North 8.1 mph - N/A   Overcast
11:33 AM 44.6 °F 39.7 °F 42.8 °F 93% 30.16 in 5.0 mi North 9.2 mph - N/A   Overcast
11:52 AM 44.6 °F 40.7 °F 42.8 °F 93% 30.17 in 5.0 mi NNW 6.9 mph - N/A   Overcast
12:12 PM 44.6 °F 39.2 °F 42.8 °F 93% 30.17 in 5.0 mi NNE 10.4 mph - N/A   Overcast
12:33 PM 44.6 °F 40.7 °F 42.8 °F 93% 30.17 in 7.0 mi North 6.9 mph - N/A   Overcast
1:12 PM 46.4 °F 43.5 °F 42.8 °F 87% 30.15 in 10.0 mi North 5.8 mph - N/A   Overcast
1:33 PM 46.4 °F 42.4 °F 42.8 °F 87% 30.15 in 10.0 mi North 8.1 mph - N/A   Overcast
1:52 PM 46.4 °F 42.4 °F 42.8 °F 87% 30.15 in 10.0 mi North 8.1 mph - N/A   Overcast
2:12 PM 46.4 °F 42.4 °F 42.8 °F 87% 30.15 in 10.0 mi NNW 8.1 mph - N/A   Overcast
2:33 PM 50.0 °F - 44.6 °F 82% 30.15 in 10.0 mi NNW 10.4 mph - N/A   Overcast
2:52 PM 50.0 °F - 42.8 °F 76% 30.14 in 10.0 mi NNW 9.2 mph - N/A   Overcast
3:33 PM 50.0 °F - 44.6 °F 82% 30.13 in 10.0 mi NNW 8.1 mph - N/A   Overcast
3:52 PM 50.0 °F - 44.6 °F 82% 30.13 in 10.0 mi NNW 8.1 mph - N/A   Overcast
4:12 PM 50.0 °F - 44.6 °F 82% 30.13 in 10.0 mi NNW 6.9 mph 16.1 mph N/A   Overcast
4:33 PM 50.0 °F - 44.6 °F 82% 30.13 in 10.0 mi North 6.9 mph 16.1 mph N/A   Overcast
4:52 PM 50.0 °F - 44.6 °F 82% 30.12 in 10.0 mi North 9.2 mph - N/A   Overcast
5:12 PM 51.8 °F - 44.6 °F 76% 30.12 in 10.0 mi North 6.9 mph - N/A   Overcast
5:33 PM 51.8 °F - 44.6 °F 76% 30.12 in 10.0 mi NNW 12.7 mph 18.4 mph N/A   Overcast
5:52 PM 50.0 °F - 44.6 °F 82% 30.12 in 10.0 mi North 8.1 mph - N/A   Overcast
6:12 PM 50.0 °F - 44.6 °F 82% 30.12 in 10.0 mi North 8.1 mph - N/A   Overcast
6:33 PM 50.0 °F - 44.6 °F 82% 30.12 in 10.0 mi North 8.1 mph - N/A   Overcast
6:52 PM 50.0 °F - 44.6 °F 82% 30.12 in 10.0 mi North 8.1 mph - N/A   Overcast
7:12 PM 50.0 °F - 44.6 °F 82% 30.12 in 10.0 mi North 5.8 mph - N/A   Overcast
7:33 PM 50.0 °F - 44.6 °F 82% 30.12 in 10.0 mi NNW 9.2 mph - N/A   Overcast
7:52 PM 50.0 °F - 44.6 °F 82% 30.12 in 10.0 mi NNW 9.2 mph - N/A   Overcast
8:12 PM 48.2 °F - 44.6 °F 87% 30.12 in 10.0 mi NNW 8.1 mph - N/A   Overcast
8:32 PM 48.2 °F - 42.8 °F 82% 30.12 in 10.0 mi NNW 8.1 mph - N/A   Overcast
8:52 PM 48.2 °F - 42.8 °F 82% 30.12 in 10.0 mi NNW 6.9 mph - N/A   Overcast
9:32 PM 46.4 °F 44.3 °F 42.8 °F 87% 30.12 in 10.0 mi NNW 4.6 mph - N/A   Overcast
9:53 PM 46.4 °F 45.2 °F 42.8 °F 87% 30.12 in 10.0 mi NNW 3.5 mph - N/A   Overcast
10:07 PM 46.4 °F - 42.8 °F 87% 30.12 in 10.0 mi Calm Calm - N/A   Overcast
10:32 PM 46.4 °F 45.2 °F 42.8 °F 87% 30.12 in 10.0 mi NNW 3.5 mph - N/A   Overcast
10:53 PM 46.4 °F 44.3 °F 42.8 °F 87% 30.12 in 10.0 mi NW 4.6 mph - N/A   Overcast
11:12 PM 46.4 °F 43.5 °F 42.8 °F 87% 30.12 in 10.0 mi NW 5.8 mph - N/A   Overcast
11:32 PM 46.4 °F 43.5 °F 42.8 °F 87% 30.12 in 10.0 mi NW 5.8 mph - N/A   Overcast
11:52 PM 46.4 °F 43.5 °F 42.8 °F 87% 30.12 in 10.0 mi NW 5.8 mph - N/A   Overcast